Home   Weather   Nannestad   Past weeks

Flag for Norway Past Weather in Nannestad, Norway — Yesterday and Last 2 Weeks

Now
46 °F

Sunny.


Feels Like: 42 °F
Forecast: 30 / 41 °F
Wind: 9 mph from Southwest

Location: Oslo Gardermoen Airport

Current Time: Jan 19, 2017 at 2:23:08 pm

Latest Report: Jan 19, 2017 at 1:50 pm


Visibility: 10 mi

Pressure: 30.12 "Hg

Humidity: 57%

Dew Point: 32 °F

Location of NannestadLocation

Past Weather in Nannestad — Graph

°F

Nannestad Temperature Yesterday

Maximum temperature yesterday: 34 °F (at 9:20 pm)
Minimum temperature yesterday: 21 °F (at 10:20 am)
Average temperature yesterday: 25 °F

High & Low Weather Summary for the Past Weeks

 TemperatureHumidityPressure
High46 °F (Jan 19, 12:50 pm)100% (Jan 7, 6:50 pm)30.60 "Hg (Jan 7, 6:50 pm)
Low1 °F (Jan 6, 1:50 am)54% (Jan 15, 3:20 pm)28.50 "Hg (Jan 11, 4:20 pm)
Average24 °F86%29.84 "Hg
* Reported Jan 4 12:20 pm — Jan 19 12:50 pm, Nannestad, Weather by CustomWeather, © 2017

Note: Actual official high and low records may vary slightly from our data, if they occured in-between our weather recording intervals... More about our weather records

Advertising

Nannestad Weather History for the Previous 24 Hours

Scroll right to see more
 ConditionsComfort  
Time TempWeatherWind HumidityBarometerVisibility
12:50 pm
Thu, Jan 19
46 °FSunny.1 mph57%30.15 "Hg10 mi
12:20 pm45 °FSunny.5 mph66%30.12 "Hg10 mi
11:50 am37 °FPassing clouds.6 mph81%30.12 "HgN/A
11:20 am37 °FPassing clouds.10 mph81%30.12 "HgN/A
10:50 am36 °FPassing clouds.10 mph87%30.12 "HgN/A
10:20 am36 °FSunny.13 mph87%30.15 "Hg10 mi
9:50 am34 °FSunny.9 mph87%30.15 "Hg10 mi
9:20 am36 °FSunny.9 mph87%30.15 "Hg10 mi
8:50 am36 °FPassing clouds.5 mph81%30.15 "HgN/A
8:20 am36 °FPassing clouds.5 mph81%30.15 "HgN/A
7:50 am36 °FPassing clouds.7 mph81%30.15 "HgN/A
7:20 am45 °FPassing clouds.5 mph57%30.15 "HgN/A
6:50 am41 °FPassing clouds.7 mph66%30.18 "HgN/A
6:20 am45 °FPassing clouds.8 mph57%30.18 "HgN/A
5:50 am43 °FPassing clouds.5 mph61%30.18 "HgN/A
5:20 am32 °FClear.2 mph87%30.18 "Hg10 mi
4:50 am39 °FPassing clouds.7 mph75%30.18 "HgN/A
4:20 am30 °FPassing clouds.6 mph93%30.18 "HgN/A
3:50 am32 °FPassing clouds.5 mph87%30.18 "HgN/A
3:20 am28 °FClear.1 mph93%30.18 "Hg10 mi
2:50 am30 °FClear.No wind93%30.18 "Hg10 mi
2:20 am32 °FClear.No wind93%30.21 "Hg10 mi
1:50 am34 °FClear.6 mph87%30.21 "Hg10 mi
1:20 am34 °FPassing clouds.5 mph81%30.18 "HgN/A
12:50 am34 °FClear.1 mph87%30.18 "Hg10 mi
12:20 am32 °FPassing clouds.3 mph93%30.18 "HgN/A
11:50 pm
Wed, Jan 18
34 °FClear.2 mph93%30.18 "Hg10 mi
11:20 pm30 °FClear.1 mph93%30.18 "Hg10 mi
10:50 pm30 °FClear.1 mph93%30.18 "Hg10 mi
10:20 pm32 °FPassing clouds.5 mph93%30.18 "HgN/A
9:50 pm32 °FPassing clouds.3 mph93%30.18 "HgN/A
9:20 pm34 °FClear.8 mph87%30.18 "Hg10 mi
8:50 pm28 °FClear.5 mph100%30.18 "Hg10 mi
8:20 pm25 °FPassing clouds.3 mph93%30.18 "Hg6 mi
7:50 pm23 °FPassing clouds.2 mph93%30.18 "Hg5 mi
7:20 pm25 °FFog.No wind93%30.18 "Hg4 mi
6:50 pm25 °FFog.No wind93%30.21 "HgN/A
6:20 pm25 °FPassing clouds.No wind93%30.18 "HgN/A
5:50 pm25 °FSnow. Overcast.No wind93%30.18 "Hg1 mi
5:20 pm25 °FCold.No wind93%30.18 "Hg1 mi
4:50 pm25 °FSnow. Overcast.1 mph100%30.21 "Hg1 mi
4:20 pm25 °FIce fog.No wind100%30.21 "Hg0 mi
3:50 pm27 °FIce fog.1 mph93%30.21 "Hg0 mi
3:20 pm27 °FIce fog.3 mph93%30.21 "Hg0 mi
2:50 pm25 °FIce fog.No wind100%30.21 "Hg0 mi
2:20 pm25 °FIce fog.5 mph100%30.21 "Hg0 mi
Weather by CustomWeather, © 2017

See weather overviewHow to use our weather pages